Location: Choisy
(48.7685°N, 2.4187°E)
Time: 19:49:38
(UTC+00:00)

Envisat - Pass Details

Date: 06 March 2024
Orbit: 762 x 764 km, 98.3° (Epoch: 24 April)

Event Time Altitude Azimuth Distance (km) Brightness Sun altitude
Rises 05:31:04 0° 358° (N) 3,244 6.3 -9.1°
Reaches altitude 10° 05:35:34 10° 320° (NW) 2,310 5.1 -8.4°
Maximum altitude 05:36:30 11° 309° (NW) 2,274 5.0 -8.2°
Drops below altitude 10° 05:37:27 10° 299° (WNW) 2,308 5.0 -8.1°
Enters shadow 05:38:35 - 287° (WNW) 2,436 5.0 -7.9°
